CW0133 Weather Reports


Display with metric or nautical units.
time (UTC)temp
F
wind
direction
speed
MPH
gust
MPH
rain 1hr
in
rain 24hr
in
rain mn
in
humidity
%
barometer
mb
20260510044504 73 113 0.0 1.0 0.00 0.03 0.03 82 1011.7
20260510044004 73 113 0.0 1.0 0.00 0.03 0.03 82 1011.7
20260510043504 73 0 0.0 0.0 0.00 0.03 0.03 82 1011.8
20260510043005 74 113 0.0 1.0 0.00 0.03 0.03 81 1011.6
20260510042504 74 113 0.0 1.0 0.00 0.03 0.03 81 1011.7
20260510042004 74 113 0.0 1.0 0.00 0.03 0.03 81 1011.6
20260510041503 74 113 0.0 1.0 0.00 0.03 0.03 81 1011.6
20260510041003 74 113 0.0 1.0 0.00 0.03 0.03 81 1011.5
20260510040503 75 113 0.0 1.0 0.00 0.03 0.03 81 1011.5
20260510040024 75 113 0.0 1.0 0.00 0.03 0.03 80 1011.5
20260510035503 75 113 0.0 1.0 0.00 0.03 0.03 80 1011.5
20260510035003 76 113 0.0 1.0 0.00 0.03 0.03 80 1011.4
20260510034504 76 113 0.0 1.0 0.00 0.03 0.03 80 1011.5
20260510034004 76 113 0.0 1.0 0.00 0.03 0.03 79 1011.4
20260510033503 76 113 0.0 1.0 0.00 0.03 0.03 79 1011.3
20260510033024 77 0 0.0 0.0 0.00 0.03 0.03 79 1011.3
20260510032524 77 0 0.0 0.0 0.00 0.03 0.03 79 1011.2
20260510032003 77 113 0.0 1.0 0.00 0.03 0.03 79 1011.1
20260510031503 77 113 1.0 2.0 0.00 0.03 0.03 79 1011.1
20260510031004 78 113 1.0 2.0 0.00 0.03 0.03 79 1011.0
20260510030504 78 113 1.0 2.0 0.00 0.03 0.03 79 1010.9
20260510030025 78 113 1.0 4.0 0.00 0.03 0.03 79 1010.8
20260510025503 78 113 2.0 4.0 0.00 0.03 0.03 78 1010.7
20260510025025 78 113 2.0 4.0 0.00 0.03 0.03 78 1010.6
20260510024504 79 113 2.0 5.0 0.00 0.03 0.03 78 1010.5
20260510024004 79 113 2.0 6.0 0.00 0.03 0.03 77 1010.5
20260510023503 79 113 2.0 6.0 0.00 0.03 0.03 77 1010.5
20260510023004 80 113 2.0 4.0 0.00 0.03 0.03 77 1010.5
20260510022504 80 113 2.0 5.0 0.00 0.03 0.03 76 1010.5
20260510022003 80 113 1.0 5.0 0.00 0.03 0.03 75 1010.5
20260510021503 80 113 2.0 5.0 0.00 0.03 0.03 75 1010.4
20260510021003 81 113 2.0 5.0 0.00 0.03 0.03 75 1010.3
20260510020503 81 113 2.0 5.0 0.00 0.03 0.03 74 1010.3
20260510020004 81 113 2.0 4.0 0.00 0.03 0.03 73 1010.2
20260510015504 81 113 2.0 5.0 0.00 0.03 0.03 73 1010.2
20260510015003 82 113 2.0 5.0 0.00 0.03 0.03 73 1010.1
20260510014504 82 113 2.0 5.0 0.00 0.03 0.03 72 1010.1
20260510014003 82 113 1.0 5.0 0.00 0.03 0.03 72 1010.1
20260510013503 83 113 1.0 4.0 0.00 0.03 0.03 71 1010.0
20260510013003 83 113 1.0 4.0 0.00 0.03 0.03 70 1009.9
20260510012504 83 113 1.0 2.0 0.00 0.03 0.03 70 1009.9
20260510012024 84 113 0.0 2.0 0.00 0.03 0.03 69 1009.8
20260510011503 84 113 1.0 4.0 0.00 0.03 0.03 69 1009.8
20260510011003 84 113 1.0 4.0 0.00 0.03 0.03 68 1009.7
20260510010524 84 113 2.0 5.0 0.00 0.03 0.03 68 1009.7
20260510010004 85 113 2.0 5.0 0.00 0.03 0.03 67 1009.6
20260510005503 85 113 2.0 6.0 0.00 0.03 0.03 67 1009.7
20260510005004 85 113 2.0 6.0 0.00 0.03 0.03 67 1009.6
20260510004524 85 114 4.0 6.0 0.00 0.03 0.03 66 1009.6
20260510004004 86 114 4.0 8.0 0.00 0.03 0.03 66 1009.6
20260510003503 86 114 2.0 8.0 0.00 0.03 0.03 66 1009.5
20260510003004 86 114 4.0 6.0 0.00 0.03 0.03 65 1009.4
20260510002503 86 114 4.0 10.0 0.00 0.03 0.03 64 1009.4
20260510002003 86 117 5.0 10.0 0.00 0.03 0.03 64 1009.4
20260510001524 86 121 4.0 10.0 0.00 0.03 0.03 63 1009.4
20260510001003 86 123 4.0 10.0 0.00 0.03 0.03 62 1009.3
20260510000503 87 122 4.0 8.0 0.00 0.03 0.03 61 1009.2
20260510000024 87 121 4.0 8.0 0.00 0.03 0.03 60 1009.2
20260509235503 87 121 4.0 8.0 0.00 0.03 0.03 58 1009.2
20260509235003 87 120 4.0 6.0 0.00 0.03 0.03 57 1009.1
20260509234503 88 118 5.0 8.0 0.00 0.03 0.03 57 1009.1
20260509234003 88 117 5.0 8.0 0.00 0.03 0.03 56 1009.0
20260509233504 88 115 4.0 8.0 0.00 0.03 0.03 55 1009.0
20260509233003 88 126 4.0 8.0 0.00 0.03 0.03 53 1009.0
20260509232525 88 137 4.0 8.0 0.00 0.03 0.03 52 1009.1
20260509232004 89 144 4.0 7.0 0.00 0.03 0.03 51 1009.0
20260509231524 89 149 2.0 6.0 0.00 0.03 0.03 49 1009.0
20260509231003 89 155 2.0 6.0 0.00 0.03 0.03 46 1009.0
20260509230503 89 152 4.0 7.0 0.00 0.03 0.03 45 1009.1
20260509230024 89 138 4.0 8.0 0.00 0.03 0.03 44 1009.1
20260509225503 90 119 5.0 8.0 0.00 0.03 0.03 49 1009.1
20260509225003 90 111 4.0 12.0 0.00 0.03 0.03 51 1009.1
20260509224503 90 109 5.0 12.0 0.00 0.03 0.03 47 1009.0
20260509224004 90 109 6.0 11.0 0.00 0.03 0.03 47 1009.0
20260509223503 90 107 5.0 11.0 0.00 0.03 0.03 48 1009.0
20260509223024 90 125 5.0 11.0 0.00 0.03 0.03 52 1009.0
20260509222503 90 168 4.0 7.0 0.00 0.03 0.03 51 1009.0
20260509222004 90 187 2.0 6.0 0.00 0.03 0.03 52 1008.9
20260509221503 90 190 4.0 7.0 0.00 0.03 0.03 55 1008.8
20260509221003 89 192 4.0 7.0 0.00 0.03 0.03 54 1008.8
20260509220503 89 192 4.0 6.0 0.00 0.03 0.03 55 1008.7
20260509220003 89 191 5.0 8.0 0.00 0.03 0.03 57 1008.6
20260509215503 88 191 4.0 8.0 0.00 0.03 0.03 57 1008.7
20260509215024 88 191 2.0 7.0 0.00 0.03 0.03 55 1008.8
20260509214503 87 191 2.0 5.0 0.00 0.03 0.03 55 1008.9
20260509214003 86 195 4.0 12.0 0.00 0.03 0.03 57 1008.9
20260509213503 86 180 6.0 16.0 0.00 0.03 0.03 57 1009.0
20260509213003 85 153 6.0 16.0 0.00 0.03 0.03 57 1009.2
20260509212503 84 140 6.0 11.0 0.00 0.03 0.03 60 1009.2
20260509212003 83 148 7.0 17.0 0.00 0.03 0.03 57 1009.3
20260509211504 82 147 10.0 23.0 0.00 0.03 0.03 59 1009.5
20260509211024 81 149 11.0 23.0 0.00 0.03 0.03 60 1009.8
20260509210524 79 140 12.0 23.0 0.00 0.03 0.03 61 1009.8
20260509210003 78 127 12.0 23.0 0.00 0.03 0.03 57 1010.0
20260509205503 78 122 12.0 26.0 0.00 0.03 0.03 57 1009.9
20260509205004 78 114 12.0 28.0 0.00 0.03 0.03 55 1009.8
20260509204504 79 104 13.0 30.0 0.00 0.03 0.03 57 1010.0
20260509204025 82 94 12.0 36.0 0.00 0.03 0.03 53 1010.0
20260509203504 86 86 10.0 36.0 0.00 0.03 0.03 47 1009.9
20260509203004 90 74 10.0 29.0 0.00 0.03 0.03 41 1010.0
20260509202504 94 27 5.0 18.0 0.00 0.03 0.03 52 1010.1
20260509202004 95 326 4.0 18.0 0.00 0.03 0.03 46 1010.0
20260509201525 95 284 4.0 8.0 0.00 0.03 0.03 45 1009.7
20260509201004 95 253 2.0 8.0 0.00 0.03 0.03 47 1009.6
20260509200504 95 209 2.0 8.0 0.00 0.03 0.03 50 1009.6
20260509200025 95 208 4.0 10.0 0.00 0.03 0.03 47 1009.8
20260509195504 95 197 4.0 10.0 0.00 0.03 0.03 47 1009.9
20260509195004 95 185 2.0 7.0 0.00 0.03 0.03 50 1009.8
20260509194525 95 195 2.0 10.0 0.00 0.03 0.03 49 1009.9
20260509194004 94 217 4.0 10.0 0.00 0.03 0.03 51 1009.9
20260509193525 94 231 4.0 7.0 0.00 0.03 0.03 51 1010.0
20260509193004 94 198 4.0 8.0 0.00 0.03 0.03 50 1010.1
20260509192504 93 171 4.0 8.0 0.00 0.03 0.03 54 1010.2
20260509192004 93 195 4.0 7.0 0.00 0.03 0.03 58 1010.2
20260509191504 92 220 2.0 6.0 0.00 0.03 0.03 58 1010.2
20260509191004 92 236 2.0 6.0 0.00 0.03 0.03 54 1010.4
20260509190503 92 226 2.0 7.0 0.00 0.03 0.03 56 1010.5
20260509190004 92 205 4.0 7.0 0.00 0.03 0.03 56 1010.5
20260509185504 92 187 4.0 12.0 0.00 0.03 0.03 55 1010.6
20260509185004 91 226 4.0 12.0 0.00 0.03 0.03 56 1010.7
20260509184504 91 333 2.0 8.0 0.00 0.03 0.03 59 1010.8
20260509184004 91 253 2.0 7.0 0.00 0.03 0.03 56 1010.9
20260509183504 92 214 4.0 8.0 0.00 0.03 0.03 59 1011.0
20260509183004 91 229 4.0 8.0 0.00 0.03 0.03 58 1011.1
20260509182504 91 236 4.0 8.0 0.00 0.03 0.03 61 1011.3
20260509182004 90 226 4.0 8.0 0.00 0.03 0.03 62 1011.3
20260509181504 90 216 4.0 8.0 0.00 0.03 0.03 62 1011.3
20260509181004 90 198 5.0 11.0 0.00 0.03 0.03 64 1011.4
20260509180504 89 199 5.0 11.0 0.00 0.03 0.03 63 1011.3
20260509180004 89 203 5.0 12.0 0.00 0.03 0.03 68 1011.4
20260509175504 89 206 5.0 12.0 0.00 0.03 0.03 65 1011.5
20260509175003 88 299 2.0 8.0 0.00 0.03 0.03 70 1011.6
20260509174504 88 190 4.0 10.0 0.00 0.03 0.03 67 1011.8
20260509174004 87 170 4.0 10.0 0.00 0.03 0.03 71 1011.9
20260509173504 87 170 2.0 10.0 0.00 0.03 0.03 73 1011.9
20260509173003 86 128 4.0 10.0 0.00 0.03 0.03 73 1012.0
20260509172504 86 120 5.0 12.0 0.00 0.03 0.03 75 1012.1
20260509172003 85 149 5.0 12.0 0.00 0.03 0.03 76 1012.1
20260509171504 84 183 5.0 10.0 0.00 0.03 0.03 75 1012.0
20260509171004 84 168 2.0 10.0 0.00 0.03 0.03 76 1012.0
20260509170504 84 131 4.0 8.0 0.00 0.03 0.03 77 1012.0
20260509170004 83 152 4.0 8.0 0.00 0.03 0.03 78 1012.0
20260509165504 82 176 2.0 7.0 0.00 0.03 0.03 81 1012.2
20260509165004 82 179 2.0 7.0 0.00 0.03 0.03 78 1012.1
20260509164504 82 179 4.0 8.0 0.00 0.03 0.03 79 1012.1
20260509164003 82 192 4.0 8.0 0.00 0.03 0.03 80 1012.2
20260509163504 81 224 2.0 7.0 0.00 0.03 0.03 81 1012.2
20260509163004 81 254 2.0 7.0 0.00 0.03 0.03 81 1012.2
20260509162504 81 258 2.0 6.0 0.00 0.03 0.03 82 1012.2
20260509162004 80 229 4.0 10.0 0.00 0.03 0.03 84 1012.2
20260509161504 80 186 4.0 13.0 0.00 0.03 0.03 86 1012.2
20260509161003 79 184 4.0 13.0 0.00 0.03 0.03 88 1012.1
20260509160503 79 202 2.0 7.0 0.00 0.03 0.03 90 1012.0
20260509160004 78 192 4.0 7.0 0.00 0.03 0.03 91 1012.1
20260509155504 78 181 4.0 8.0 0.00 0.03 0.03 92 1012.1
20260509155003 78 181 4.0 8.0 0.00 0.03 0.03 93 1012.0
20260509154504 78 184 4.0 7.0 0.00 0.03 0.03 94 1012.0
20260509154003 77 189 2.0 8.0 0.00 0.03 0.03 94 1012.2
20260509153503 77 204 4.0 8.0 0.00 0.03 0.03 94 1012.3
20260509153024 77 200 5.0 11.0 0.00 0.03 0.03 95 1012.3
20260509152504 77 187 5.0 11.0 0.00 0.03 0.03 95 1012.3
20260509152003 76 162 5.0 8.0 0.00 0.03 0.03 95 1012.4
20260509151503 76 146 4.0 10.0 0.00 0.03 0.03 95 1012.4
20260509151004 76 160 4.0 10.0 0.00 0.03 0.03 95 1012.5
20260509150504 76 159 4.0 10.0 0.00 0.03 0.03 95 1012.3
20260509150003 75 160 5.0 12.0 0.00 0.03 0.03 95 1012.4
20260509145504 75 164 5.0 12.0 0.00 0.03 0.03 95 1012.3
20260509145004 75 153 5.0 12.0 0.00 0.03 0.03 95 1012.2
20260509144504 75 130 4.0 7.0 0.00 0.03 0.03 95 1012.1
20260509144003 74 122 2.0 5.0 0.00 0.03 0.03 95 1012.2
20260509143503 74 122 1.0 5.0 0.00 0.03 0.03 94 1012.1
20260509143003 74 122 1.0 5.0 0.00 0.03 0.03 94 1011.9
20260509142524 74 122 2.0 5.0 0.00 0.03 0.03 94 1011.9
20260509142003 74 111 2.0 6.0 0.00 0.03 0.03 94 1011.8
20260509141503 74 69 2.0 7.0 0.00 0.03 0.03 94 1011.8
20260509141004 74 14 2.0 7.0 0.00 0.03 0.03 94 1011.9
20260509140503 73 360 1.0 4.0 0.00 0.03 0.03 94 1012.0
20260509140003 73 360 0.0 2.0 0.00 0.03 0.03 94 1012.1
20260509135504 73 0 0.0 0.0 0.00 0.03 0.03 94 1012.1
20260509135003 73 360 0.0 2.0 0.00 0.03 0.03 94 1012.1
20260509134503 73 360 0.0 2.0 0.00 0.03 0.03 94 1012.1
20260509134003 73 360 1.0 2.0 0.00 0.03 0.03 94 1012.2
20260509133503 73 360 1.0 2.0 0.00 0.03 0.03 94 1012.2
20260509133004 73 360 1.0 2.0 0.00 0.03 0.03 94 1012.2
20260509132524 73 360 0.0 2.0 0.00 0.03 0.03 94 1012.4
20260509132004 73 360 0.0 2.0 0.00 0.03 0.03 94 1012.3
20260509131503 73 360 1.0 4.0 0.01 0.03 0.03 94 1012.1
20260509131003 73 360 1.0 4.0 0.01 0.03 0.03 94 1012.2
20260509130503 73 360 0.0 4.0 0.01 0.03 0.03 94 1012.0
20260509130004 73 360 1.0 4.0 0.01 0.03 0.03 94 1011.9
20260509125503 73 360 0.0 4.0 0.01 0.03 0.03 94 1011.7
20260509125003 73 360 1.0 5.0 0.01 0.03 0.03 94 1011.6
20260509124503 73 360 2.0 5.0 0.01 0.03 0.03 94 1011.6
20260509124024 73 360 2.0 5.0 0.01 0.03 0.03 94 1011.6
20260509123503 73 360 1.0 5.0 0.01 0.03 0.03 94 1011.5
20260509123003 73 360 1.0 5.0 0.01 0.03 0.03 94 1011.6
20260509122503 73 360 1.0 5.0 0.01 0.03 0.03 94 1011.6
20260509122003 73 360 2.0 7.0 0.01 0.03 0.03 94 1011.8
20260509121503 73 2 4.0 7.0 0.00 0.02 0.02 94 1011.8
20260509121003 73 6 2.0 6.0 0.00 0.02 0.02 94 1012.1
20260509120503 73 8 2.0 6.0 0.00 0.02 0.02 93 1011.9
20260509120004 73 9 2.0 5.0 0.00 0.02 0.02 93 1011.9
20260509115504 73 9 2.0 5.0 0.00 0.02 0.02 93 1012.0
20260509115003 73 7 2.0 6.0 0.00 0.02 0.02 93 1011.9
20260509114503 73 5 1.0 6.0 0.00 0.02 0.02 93 1011.9
20260509114003 73 5 1.0 2.0 0.00 0.02 0.02 93 1012.2
20260509113503 73 5 1.0 4.0 0.00 0.02 0.02 93 1012.3
20260509113003 74 5 1.0 4.0 0.00 0.02 0.02 93 1012.5
20260509112503 74 5 1.0 4.0 0.00 0.02 0.02 93 1012.4
20260509112003 74 5 1.0 5.0 0.00 0.02 0.02 93 1012.7
20260509111524 74 5 2.0 7.0 0.00 0.02 0.02 93 1012.7
20260509111003 74 360 4.0 7.0 0.00 0.02 0.02 93 1012.8
20260509110524 74 358 4.0 7.0 0.00 0.02 0.02 93 1012.8
20260509110003 74 352 4.0 7.0 0.00 0.02 0.02 93 1012.9
20260509105503 74 342 4.0 7.0 0.00 0.02 0.02 93 1012.8
20260509105003 74 341 4.0 7.0 0.00 0.02 0.02 93 1012.9
20260509104503 74 318 4.0 7.0 0.00 0.02 0.02 93 1012.9
20260509104003 74 204 2.0 7.0 0.00 0.02 0.02 93 1012.8
20260509103503 74 192 2.0 5.0 0.00 0.02 0.02 93 1012.8
20260509103004 73 192 2.0 4.0 0.00 0.02 0.02 93 1012.8
20260509102503 73 192 1.0 4.0 0.00 0.02 0.02 93 1012.5
20260509102003 73 191 0.0 1.0 0.00 0.02 0.02 93 1012.2
20260509101503 73 191 0.0 2.0 0.01 0.02 0.02 93 1012.0
20260509101003 73 191 0.0 2.0 0.01 0.02 0.02 93 1011.9
20260509100503 74 191 0.0 2.0 0.01 0.02 0.02 93 1011.9
20260509100004 74 191 0.0 2.0 0.01 0.02 0.02 93 1011.7
20260509095503 74 191 0.0 2.0 0.01 0.02 0.02 93 1011.6
20260509095003 74 191 0.0 2.0 0.01 0.02 0.02 93 1011.4
20260509094503 74 191 1.0 2.0 0.02 0.02 0.02 93 1011.4
20260509094003 74 191 0.0 2.0 0.02 0.02 0.02 93 1011.4
20260509093503 74 191 1.0 2.0 0.02 0.02 0.02 93 1011.6
20260509093003 74 191 0.0 2.0 0.02 0.02 0.02 93 1011.6
20260509092503 74 191 0.0 1.0 0.02 0.02 0.02 92 1011.6
20260509092024 74 0 0.0 0.0 0.02 0.02 0.02 92 1011.4
20260509091503 74 191 0.0 2.0 0.01 0.01 0.01 92 1011.3
20260509091003 74 191 0.0 4.0 0.01 0.01 0.01 92 1011.2
20260509090524 74 191 0.0 4.0 0.01 0.01 0.01 92 1011.3
20260509090003 74 191 0.0 2.0 0.01 0.01 0.01 92 1011.3
20260509085503 74 191 0.0 2.0 0.01 0.01 0.01 92 1011.4
20260509085003 74 191 0.0 2.0 0.01 0.01 0.01 92 1011.4
20260509084504 74 191 0.0 2.0 0.00 0.00 0.00 92 1011.5
20260509084004 74 191 1.0 4.0 0.00 0.00 0.00 92 1011.5
20260509083504 74 191 1.0 5.0 0.00 0.00 0.00 92 1011.5
20260509083025 74 191 1.0 5.0 0.00 0.00 0.00 92 1011.6
20260509082504 74 192 1.0 6.0 0.00 0.00 0.00 92 1011.6
20260509082004 74 194 1.0 6.0 0.00 0.00 0.00 92 1011.5
20260509081525 74 195 1.0 4.0 0.00 0.00 0.00 92 1011.6
20260509081004 74 195 0.0 2.0 0.00 0.00 0.00 92 1011.8
20260509080504 74 195 0.0 2.0 0.00 0.00 0.00 92 1011.6
20260509080004 74 195 0.0 1.0 0.00 0.00 0.00 92 1011.6
20260509075504 74 195 0.0 4.0 0.00 0.00 0.00 92 1011.4
20260509075004 74 195 1.0 4.0 0.00 0.00 0.00 92 1011.4
20260509074504 74 195 1.0 4.0 0.00 0.00 0.00 92 1011.4
20260509074004 74 195 1.0 4.0 0.00 0.00 0.00 92 1011.5
20260509073504 74 195 1.0 2.0 0.00 0.00 0.00 91 1011.5
20260509073004 74 195 0.0 2.0 0.00 0.00 0.00 91 1011.6
20260509072504 74 195 0.0 2.0 0.00 0.00 0.00 91 1011.6
20260509072004 74 195 0.0 4.0 0.00 0.00 0.00 91 1011.7
20260509071525 74 195 1.0 4.0 0.00 0.00 0.00 91 1011.7
20260509071004 74 195 2.0 5.0 0.00 0.00 0.00 91 1011.7
20260509070504 74 195 2.0 5.0 0.00 0.00 0.00 91 1011.8
20260509070004 74 195 2.0 5.0 0.00 0.00 0.00 91 1011.8
20260509065504 74 176 4.0 7.0 0.00 0.00 0.00 91 1011.9
20260509065003 74 152 4.0 7.0 0.00 0.00 0.00 91 1011.7
20260509064504 74 143 2.0 7.0 0.00 0.00 0.00 91 1011.5
20260509064003 74 143 2.0 10.0 0.00 0.00 0.00 91 1011.6
20260509063504 74 153 2.0 10.0 0.00 0.00 0.00 91 1011.3
20260509063025 74 175 2.0 5.0 0.00 0.00 0.00 91 1011.3
20260509062504 74 170 4.0 10.0 0.00 0.00 0.00 91 1011.3
20260509062004 74 173 5.0 10.0 0.00 0.00 0.00 91 1011.5
20260509061504 74 179 5.0 11.0 0.00 0.00 0.00 91 1011.5
20260509061004 74 174 6.0 11.0 0.00 0.00 0.00 91 1011.6
20260509060504 74 168 6.0 13.0 0.00 0.00 0.00 90 1011.6
20260509060004 74 167 7.0 14.0 0.00 0.00 0.00 90 1011.4
20260509055525 74 159 7.0 17.0 0.00 0.00 0.00 90 1011.4
20260509055004 74 149 6.0 17.0 0.00 0.00 0.00 90 1011.2
20260509054504 74 152 6.0 14.0 0.00 0.00 0.00 90 1011.4
20260509054004 74 155 6.0 13.0 0.00 0.00 0.00 90 1011.5
20260509053504 74 164 5.0 11.0 0.00 0.00 0.00 90 1011.5
20260509053004 74 168 5.0 13.0 0.00 0.00 0.00 90 1011.5
20260509052504 74 169 5.0 13.0 0.00 0.00 0.00 90 1011.5
20260509052025 74 154 4.0 10.0 0.00 0.00 0.00 90 1011.5
20260509051504 74 128 4.0 7.0 0.00 0.00 0.00 90 1011.3
20260509051004 74 126 2.0 7.0 0.00 0.00 0.00 89 1011.2
20260509050524 74 125 2.0 6.0 0.00 0.00 0.00 89 1011.1
20260509050004 74 125 2.0 6.0 0.00 0.00 0.00 89 1011.2
20260509045503 74 125 4.0 7.0 0.00 0.00 0.00 89 1011.1
20260509045003 74 125 4.0 7.0 0.00 0.00 0.00 88 1011.0